Mackinac Island, MI

9:36 PM EST on January 21, 2018 (GMT -0500)
Mackinac Island

Weather History for KMCD - December, 2013

Change the Weather History Date:

Sunday, December 1, 2013

  Actual Average Record
Temperature  
Mean Temperature 30 °F -  
Max Temperature 32 °F 35 °F 51 °F (1998)
Min Temperature 28 °F 27 °F 8 °F (2007)
Degree Days  
Heating Degree Days 34    
Moisture  
Dew Point 27 °F    
Average Humidity 85    
Maximum Humidity 100    
Minimum Humidity 73    
Precipitation  
Precipitation 0.00 in - - ()
Sea Level Pressure  
Sea Level Pressure 30.06 in    
Wind  
Wind Speed 5 mph (NE)    
Max Wind Speed 12 mph    
Max Gust Speed -    
Visibility 8 miles    
Events      
Averages and records for this station are not official NWS values.
T = Trace of Precipitation, MM = Missing Value Source: NWS Daily Summary

Daily Weather History Graph

Daily Weather History Graph

Search for Another Location

Airport or City:

Trip Planner

Search our weather history database for the weather conditions in past years. The results will help you decide how hot, cold, wet, or windy it might be!

Date:

Astronomy

Dec. 01, 2013 Rise Set
Actual Time 7:59 AM EST 4:55 PM EST
Civil Twilight 7:26 AM EST 5:29 PM EST
Nautical Twilight 6:48 AM EST 6:06 PM EST
Astronomical Twilight 6:12 AM EST 6:42 PM EST
Moon 6:12 AM EST (12/1) 4:08 PM EST (12/1)
Length of Visible Light 10h 03m
Length of Day
8h 55m
Waning Crescent, 2% of the Moon is Illuminated
Dec 1
Waning Crescent
Dec 2
New
Dec 9
First Quarter
Dec 17
Full
Dec 25
Last Quarter

Hourly Weather History & Observations

Time (EST) Temp. Windchill Dew Point Humidity Pressure Visibility Wind Dir Wind Speed Gust Speed Precip Events Conditions
12:15 AM 32.2 °F - 31.8 °F 99% 30.04 in 3.0 mi Calm Calm - N/A   Overcast
12:35 AM 32.2 °F 28.9 °F 32.0 °F 99% 30.03 in 3.0 mi NNW 3.5 mph - N/A   Overcast
12:54 AM 32.4 °F 29.1 °F 32.0 °F 99% 30.04 in 3.0 mi NNW 3.5 mph - N/A   Overcast
1:15 AM 32.2 °F 27.7 °F 32.0 °F 99% 30.03 in 2.5 mi North 4.6 mph - N/A   Overcast
1:35 AM 32.2 °F 28.9 °F 32.0 °F 99% 30.03 in 2.5 mi NNW 3.5 mph - N/A   Overcast
1:54 AM 32.0 °F 27.5 °F 32.0 °F 100% 30.03 in 2.5 mi North 4.6 mph - N/A   Overcast
2:15 AM 32.2 °F 27.7 °F 32.0 °F 99% 30.03 in 2.5 mi North 4.6 mph - N/A   Overcast
2:35 AM 32.2 °F 27.7 °F 32.0 °F 99% 30.03 in 3.0 mi North 4.6 mph - N/A   Overcast
2:54 AM 32.2 °F 26.7 °F 32.0 °F 99% 30.03 in 3.0 mi North 5.8 mph - N/A   Overcast
3:15 AM 32.0 °F 27.5 °F 31.6 °F 99% 30.04 in 4.0 mi North 4.6 mph - N/A   Overcast
3:35 AM 32.0 °F 25.6 °F 31.5 °F 98% 30.04 in 3.0 mi North 6.9 mph - N/A   Overcast
3:54 AM 32.0 °F 27.5 °F 31.1 °F 96% 30.04 in 5.0 mi North 4.6 mph - N/A   Overcast
4:15 AM 32.0 °F 26.4 °F 31.1 °F 96% 30.04 in 4.0 mi North 5.8 mph - N/A   Overcast
4:35 AM 32.0 °F 26.4 °F 31.1 °F 96% 30.05 in 5.0 mi North 5.8 mph - N/A   Overcast
4:54 AM 32.0 °F 27.5 °F 31.1 °F 96% 30.05 in 5.0 mi NNE 4.6 mph - N/A   Overcast
5:15 AM 32.0 °F 25.6 °F 30.4 °F 94% 30.05 in 7.0 mi NNE 6.9 mph - N/A   Overcast
5:35 AM 32.0 °F 24.2 °F 30.0 °F 92% 30.05 in 7.0 mi NE 9.2 mph - N/A   Overcast
5:54 AM 32.0 °F 24.2 °F 29.8 °F 92% 30.06 in 10.0 mi NE 9.2 mph - N/A   Overcast
6:15 AM 32.0 °F 25.6 °F 29.8 °F 92% 30.06 in 10.0 mi NE 6.9 mph - N/A   Overcast
6:34 AM 31.8 °F 23.9 °F 29.3 °F 90% 30.07 in 10.0 mi NE 9.2 mph - N/A   Overcast
6:55 AM 31.8 °F 23.9 °F 28.9 °F 89% 30.07 in 10.0 mi NE 9.2 mph - N/A   Overcast
7:15 AM 31.6 °F 23.7 °F 28.9 °F 90% 30.08 in 10.0 mi NE 9.2 mph - N/A   Overcast
7:34 AM 31.6 °F 23.1 °F 28.6 °F 88% 30.08 in 10.0 mi NE 10.4 mph - N/A   Overcast
7:55 AM 31.5 °F 22.9 °F 28.0 °F 87% 30.08 in 10.0 mi NE 10.4 mph - N/A   Overcast
8:14 AM 31.5 °F 22.9 °F 28.2 °F 88% 30.08 in 10.0 mi ENE 10.4 mph - N/A   Overcast
8:35 AM 31.6 °F 23.7 °F 27.9 °F 86% 30.09 in 10.0 mi ENE 9.2 mph - N/A   Overcast
8:55 AM 31.5 °F 22.9 °F 27.9 °F 87% 30.09 in 10.0 mi ENE 10.4 mph - N/A   Overcast
9:14 AM 31.5 °F 23.5 °F 27.5 °F 85% 30.09 in 10.0 mi ENE 9.2 mph - N/A   Overcast
9:35 AM 31.1 °F 22.4 °F 27.3 °F 86% 30.09 in 10.0 mi ENE 10.4 mph - N/A   Overcast
9:55 AM 31.1 °F 21.9 °F 27.1 °F 85% 30.10 in 10.0 mi ENE 11.5 mph - N/A   Overcast
10:14 AM 31.5 °F 24.2 °F 27.3 °F 85% 30.10 in 10.0 mi East 8.1 mph - N/A   Overcast
10:35 AM 31.5 °F 28.1 °F 27.3 °F 85% 30.10 in 10.0 mi ENE 3.5 mph - N/A   Overcast
10:55 AM 31.5 °F 24.9 °F 27.1 °F 84% 30.10 in 10.0 mi ENE 6.9 mph - N/A   Overcast
11:14 AM 31.5 °F 26.8 °F 27.3 °F 85% 30.10 in 10.0 mi East 4.6 mph - N/A   Overcast
11:35 AM 31.6 °F 28.3 °F 27.5 °F 85% 30.10 in 10.0 mi ESE 3.5 mph - N/A   Overcast
11:55 AM 31.6 °F 26.0 °F 25.7 °F 79% 30.09 in 10.0 mi East 5.8 mph - N/A   Overcast
12:14 PM 31.6 °F 24.4 °F 25.2 °F 77% 30.09 in 10.0 mi East 8.1 mph - N/A   Overcast
12:35 PM 31.6 °F - 25.5 °F 78% 30.08 in 10.0 mi Calm Calm - N/A   Overcast
12:55 PM 31.6 °F 24.4 °F 25.9 °F 79% 30.08 in 10.0 mi East 8.1 mph - N/A   Overcast
1:14 PM 31.1 °F 25.4 °F 26.6 °F 83% 30.08 in 10.0 mi ENE 5.8 mph - N/A   Overcast
1:35 PM 30.9 °F 24.3 °F 26.2 °F 83% 30.07 in 10.0 mi NE 6.9 mph - N/A   Overcast
1:55 PM 30.7 °F 27.3 °F 26.1 °F 83% 30.07 in 10.0 mi ENE 3.5 mph - N/A   Overcast
2:14 PM 30.7 °F 26.0 °F 25.5 °F 81% 30.06 in 10.0 mi East 4.6 mph - N/A   Overcast
2:35 PM 30.7 °F 24.1 °F 25.3 °F 80% 30.06 in 10.0 mi NE 6.9 mph - N/A   Overcast
2:54 PM 30.9 °F 26.2 °F 24.4 °F 77% 30.06 in 10.0 mi ENE 4.6 mph - N/A   Overcast
3:15 PM 30.7 °F 24.1 °F 25.2 °F 80% 30.06 in 10.0 mi NE 6.9 mph - N/A   Overcast
3:35 PM 30.6 °F 23.8 °F 25.2 °F 80% 30.06 in 10.0 mi NE 6.9 mph - N/A   Overcast
3:54 PM 30.2 °F 24.3 °F 24.8 °F 80% 30.07 in 10.0 mi NE 5.8 mph - N/A   Overcast
4:15 PM 30.2 °F 24.3 °F 23.9 °F 77% 30.07 in 10.0 mi NE 5.8 mph - N/A   Overcast
4:34 PM 30.0 °F 23.2 °F 24.3 °F 79% 30.06 in 10.0 mi NE 6.9 mph - N/A   Overcast
4:55 PM 29.8 °F 23.9 °F 24.6 °F 81% 30.06 in 10.0 mi NE 5.8 mph - N/A   Overcast
5:14 PM 29.8 °F 23.9 °F 24.3 °F 80% 30.06 in 10.0 mi NE 5.8 mph - N/A   Overcast
5:35 PM 30.0 °F 24.1 °F 23.2 °F 76% 30.06 in 10.0 mi NE 5.8 mph - N/A   Overcast
5:55 PM 30.0 °F 23.2 °F 23.2 °F 76% 30.07 in 10.0 mi NE 6.9 mph - N/A   Overcast
6:14 PM 29.8 °F 23.0 °F 23.5 °F 77% 30.07 in 10.0 mi NE 6.9 mph - N/A   Overcast
6:35 PM 29.8 °F 22.2 °F 23.4 °F 77% 30.06 in 10.0 mi ENE 8.1 mph - N/A   Overcast
6:55 PM 29.8 °F 23.0 °F 23.2 °F 76% 30.05 in 10.0 mi NE 6.9 mph - N/A   Overcast
7:14 PM 29.8 °F 23.9 °F 23.4 °F 77% 30.05 in 10.0 mi ENE 5.8 mph - N/A   Overcast
7:35 PM 29.8 °F 23.9 °F 23.4 °F 77% 30.05 in 10.0 mi ENE 5.8 mph - N/A   Overcast
7:55 PM 29.8 °F 23.0 °F 23.5 °F 77% 30.05 in 10.0 mi ENE 6.9 mph - N/A   Overcast
8:14 PM 29.7 °F 23.7 °F 23.7 °F 79% 30.04 in 10.0 mi ENE 5.8 mph - N/A   Overcast
8:35 PM 29.3 °F 25.6 °F 23.7 °F 80% 30.04 in 10.0 mi ENE 3.5 mph - N/A   Overcast
8:55 PM 29.3 °F 24.3 °F 23.4 °F 78% 30.03 in 10.0 mi ENE 4.6 mph - N/A   Overcast
9:15 PM 29.3 °F 24.3 °F 22.8 °F 77% 30.03 in 10.0 mi ENE 4.6 mph - N/A   Overcast
9:35 PM 29.3 °F 23.2 °F 22.1 °F 75% 30.03 in 10.0 mi ENE 5.8 mph - N/A   Overcast
9:54 PM 29.3 °F - 21.9 °F 74% 30.03 in 10.0 mi Calm Calm - N/A   Overcast
10:15 PM 29.3 °F 21.5 °F 21.9 °F 74% 30.04 in 10.0 mi ENE 8.1 mph - N/A   Overcast
10:35 PM 29.3 °F 23.2 °F 21.7 °F 73% 30.03 in 10.0 mi ENE 5.8 mph - N/A   Overcast
10:54 PM 29.1 °F 20.6 °F 21.9 °F 74% 30.02 in 10.0 mi NE 9.2 mph - N/A   Overcast
11:15 PM 29.1 °F 21.3 °F 21.6 °F 73% 30.01 in 10.0 mi ENE 8.1 mph - N/A   Overcast
11:35 PM 29.1 °F 25.4 °F 21.7 °F 74% 30.02 in 10.0 mi South 3.5 mph - N/A   Overcast
11:54 PM 28.9 °F 25.2 °F 22.1 °F 76% 30.00 in 10.0 mi ENE 3.5 mph - N/A   Overcast